Weather History for KVAD - January, 2013

Change the Weather History Date:

Sunday, January 6, 2013

  Actual Average Record
Temperature  
Mean Temperature 48 °F -  
Max Temperature 51 °F 60 °F 82 °F (1998)
Min Temperature 45 °F 41 °F 21 °F (1999)
Degree Days  
Heating Degree Days 16    
Moisture  
Dew Point 46 °F    
Average Humidity 90    
Maximum Humidity 100    
Minimum Humidity 76    
Precipitation  
Precipitation 0.07 in - - ()
Sea Level Pressure  
Sea Level Pressure 30.22 in    
Wind  
Wind Speed 3 mph (NNE)    
Max Wind Speed 8 mph    
Max Gust Speed -    
Visibility 10 miles    
Events Rain    
Averages and records for this station are not official NWS values.
T = Trace of Precipitation, MM = Missing Value Source: NWS Daily Summary

Daily Weather History Graph

Daily Weather History Graph

Search for Another Location

Airport or City:

Trip Planner

Search our weather history database for the weather conditions in past years. The results will help you decide how hot, cold, wet, or windy it might be!

Date:

Astronomy

Jan. 06, 2013 Rise Set
Actual Time 7:31 AM EST 5:46 PM EST
Civil Twilight 7:05 AM EST 6:12 PM EST
Nautical Twilight 6:35 AM EST 6:42 PM EST
Astronomical Twilight 6:06 AM EST 7:11 PM EST
Moon 1:53 AM EST (1/6) 1:05 PM EST (1/6)
Length of Visible Light 11h 07m
Length of Day
10h 14m
Waning Crescent, 33% of the Moon is Illuminated
Jan 6
Waning Crescent
Jan 11
New
Jan 18
First Quarter
Jan 26
Full
Feb 3
Last Quarter

Hourly Weather History & Observations

Time (EST) Temp. Windchill Dew Point Humidity Pressure Visibility Wind Dir Wind Speed Gust Speed Precip Events Conditions
12:18 AM 48.2 °F - 41.0 °F 76% 30.28 in 10.0 mi NE 3.5 mph - N/A Rain Light Rain
12:53 AM 48.2 °F - 41.0 °F 76% 30.24 in 10.0 mi NE 4.6 mph - N/A   Mostly Cloudy
12:55 AM 48.4 °F - 41.0 °F 76% 30.24 in 10.0 mi NE 4.6 mph - 0.00 in Rain Light Rain
1:11 AM 48.2 °F - 41.0 °F 76% 30.24 in 10.0 mi ENE 5.8 mph - N/A   Overcast
1:17 AM 48.2 °F - 41.0 °F 76% 30.23 in 10.0 mi ENE 5.8 mph - N/A Rain Light Rain
1:55 AM 48.2 °F - 41.4 °F 77% 30.24 in 10.0 mi Calm Calm - 0.00 in Rain Light Rain
2:55 AM 46.9 °F - 42.6 °F 85% 30.23 in 10.0 mi Calm Calm - 0.01 in Rain Light Rain
3:01 AM 46.4 °F - 42.8 °F 87% 30.24 in 10.0 mi Calm Calm - N/A   Overcast
3:16 AM 46.4 °F 45.2 °F 44.6 °F 93% 30.22 in 10.0 mi North 3.5 mph - N/A Rain Light Rain
3:29 AM 46.4 °F 45.2 °F 44.6 °F 93% 30.22 in 10.0 mi NE 3.5 mph - N/A   Overcast
3:34 AM 46.4 °F - 44.6 °F 93% 30.21 in 10.0 mi Calm Calm - N/A Rain Light Rain
3:52 AM 46.4 °F - 44.6 °F 93% 30.21 in 10.0 mi Calm Calm - N/A   Overcast
3:55 AM 46.9 °F - 44.2 °F 90% 30.21 in 10.0 mi NE 3.5 mph - 0.00 in   Overcast
4:00 AM 46.4 °F 45.2 °F 44.6 °F 93% 30.21 in 10.0 mi NE 3.5 mph - N/A Rain Light Rain
4:21 AM 46.4 °F 43.5 °F 44.6 °F 93% 30.21 in 10.0 mi North 5.8 mph - N/A   Overcast
4:55 AM 46.8 °F - 43.0 °F 87% 30.19 in 10.0 mi NNE 3.5 mph - 0.00 in   Overcast
5:29 AM 48.2 °F - 42.8 °F 82% 30.20 in 10.0 mi NE 4.6 mph - N/A Rain Light Rain
5:38 AM 48.2 °F - 42.8 °F 82% 30.20 in 10.0 mi Calm Calm - N/A   Overcast
5:55 AM 47.7 °F - 43.0 °F 84% 30.21 in 10.0 mi Calm Calm - 0.00 in   Overcast
5:56 AM 48.2 °F - 42.8 °F 82% 30.21 in 10.0 mi NE 3.5 mph - N/A Rain Light Rain
6:37 AM 46.4 °F 45.2 °F 42.8 °F 87% 30.22 in 10.0 mi ESE 3.5 mph - N/A   Overcast
6:55 AM 46.6 °F - 44.4 °F 92% 30.21 in 10.0 mi Calm Calm - 0.04 in   Overcast
7:07 AM 46.4 °F 45.2 °F 44.6 °F 93% 30.22 in 10.0 mi North 3.5 mph - N/A   Overcast
7:40 AM 46.4 °F - 46.4 °F 100% 30.22 in 10.0 mi Calm Calm - N/A   Overcast
7:55 AM 47.3 °F - 45.7 °F 94% 30.22 in 10.0 mi East 3.5 mph - N/A   Overcast
8:49 AM 48.2 °F - 46.4 °F 93% 30.23 in 10.0 mi North 6.9 mph - N/A Rain Light Rain
8:55 AM 48.0 °F - 46.9 °F 96% 30.23 in 10.0 mi NNE 6.9 mph - 0.00 in Rain Light Rain
9:01 AM 48.2 °F - 46.4 °F 93% 30.23 in 10.0 mi NNE 4.6 mph - N/A   Overcast
9:44 AM 48.2 °F - 46.4 °F 93% 30.25 in 10.0 mi NNE 5.8 mph - N/A   Overcast
9:46 AM 48.2 °F - 46.4 °F 93% 30.25 in 10.0 mi NE 3.5 mph - N/A   Overcast
9:47 AM 48.2 °F - 46.4 °F 93% 30.25 in 10.0 mi NNE 3.5 mph - N/A Rain Light Rain
9:51 AM 48.2 °F - 46.4 °F 93% 30.25 in 10.0 mi North 3.5 mph - N/A Rain Light Rain
9:52 AM 48.2 °F - 46.4 °F 93% 30.25 in 10.0 mi North 4.6 mph - N/A Rain Light Rain
9:53 AM 48.2 °F - 46.4 °F 93% 30.25 in 10.0 mi North 5.8 mph - N/A Rain Light Rain
9:55 AM 48.6 °F - 46.4 °F 92% 30.25 in 10.0 mi NNE 4.6 mph - 0.00 in Rain Light Rain
10:03 AM 48.2 °F - 46.4 °F 93% 30.25 in 10.0 mi North 4.6 mph - N/A   Overcast
10:50 AM 50.0 °F - 46.4 °F 87% 30.25 in 10.0 mi Calm Calm - N/A   Overcast
10:55 AM 49.3 °F - 45.5 °F 87% 30.25 in 10.0 mi Calm Calm - 0.00 in   Overcast
10:56 AM 50.0 °F - 46.4 °F 87% 30.25 in 10.0 mi Calm Calm - N/A Rain Light Rain
11:02 AM 50.0 °F - 46.4 °F 87% 30.25 in 5.0 mi North 3.5 mph - N/A Rain Light Rain
11:06 AM 50.0 °F - 46.4 °F 87% 30.25 in 5.0 mi North 3.5 mph - N/A Rain Light Rain
11:11 AM 48.2 °F - 46.4 °F 93% 30.25 in 7.0 mi NNW 5.8 mph - N/A Rain Light Rain
11:12 AM 48.2 °F - 46.4 °F 93% 30.25 in 8.0 mi North 5.8 mph - N/A Rain Light Rain
11:25 AM 48.2 °F - 46.4 °F 93% 30.25 in 4.0 mi NNW 5.8 mph - N/A Rain Light Rain
11:34 AM 48.2 °F - 48.2 °F 100% 30.24 in 6.0 mi North 4.6 mph - N/A Rain Light Rain
11:35 AM 48.2 °F - 48.2 °F 100% 30.24 in 7.0 mi North 4.6 mph - N/A Rain Light Rain
11:40 AM 48.2 °F - 48.2 °F 100% 30.24 in 10.0 mi North 4.6 mph - N/A Rain Light Rain
11:42 AM 48.2 °F - 48.2 °F 100% 30.23 in 10.0 mi North 4.6 mph - N/A   Overcast
11:55 AM 48.9 °F - 48.0 °F 97% 30.22 in 10.0 mi NE 4.6 mph - 0.01 in   Overcast
11:58 AM 48.2 °F - 48.2 °F 100% 30.22 in 10.0 mi NE 4.6 mph - N/A Rain Light Rain
12:03 PM 48.2 °F - 48.2 °F 100% 30.23 in 7.0 mi North 4.6 mph - N/A Rain Light Rain
12:06 PM 48.2 °F - 48.2 °F 100% 30.23 in 6.0 mi North 4.6 mph - N/A Rain Light Rain
12:09 PM 48.2 °F - 48.2 °F 100% 30.22 in 6.0 mi North 5.8 mph - N/A Rain Light Rain
12:17 PM 50.0 °F - 48.2 °F 94% 30.22 in 10.0 mi North 5.8 mph - N/A   Overcast
12:22 PM 50.0 °F - 48.2 °F 94% 30.22 in 10.0 mi North 5.8 mph - N/A   Overcast
12:33 PM 50.0 °F - 48.2 °F 94% 30.20 in 10.0 mi NE 4.6 mph - N/A   Overcast
12:55 PM 49.5 °F - 46.2 °F 89% 30.19 in 10.0 mi North 8.1 mph - 0.01 in   Overcast
12:58 PM 50.0 °F - 46.4 °F 87% 30.19 in 10.0 mi NNE 6.9 mph - N/A   Overcast
1:40 PM 50.0 °F - 46.4 °F 87% 30.17 in 10.0 mi NE 4.6 mph - N/A Rain Light Rain
1:55 PM 50.7 °F - 46.9 °F 87% 30.17 in 10.0 mi NNE 4.6 mph - 0.00 in Rain Light Rain
2:12 PM 50.0 °F - 46.4 °F 87% 30.17 in 10.0 mi NNE 4.6 mph - N/A   Overcast
2:55 PM 51.3 °F - 47.1 °F 86% 30.16 in 10.0 mi NNE 3.5 mph - 0.00 in   Overcast
3:55 PM 51.6 °F - 44.2 °F 76% 30.16 in 10.0 mi NNE 4.6 mph - N/A   Overcast
4:01 PM 51.8 °F - 44.6 °F 76% 30.16 in 10.0 mi NNE 4.6 mph - N/A   Overcast
4:55 PM 51.6 °F - 44.8 °F 77% 30.17 in 10.0 mi Calm Calm - N/A   Overcast
5:55 PM 51.3 °F - 45.1 °F 80% 30.17 in 10.0 mi Calm Calm - N/A   Overcast
6:55 PM 49.8 °F - 47.5 °F 92% 30.19 in 10.0 mi Calm Calm - N/A   Overcast
7:55 PM 49.6 °F - 48.6 °F 96% 30.19 in 10.0 mi Calm Calm - N/A   Mostly Cloudy
8:55 PM 48.9 °F - 47.5 °F 95% 30.21 in 10.0 mi Calm Calm - N/A   Mostly Cloudy
9:55 PM 48.2 °F - 47.5 °F 97% 30.23 in 10.0 mi Calm Calm - N/A   Scattered Clouds
10:55 PM 46.8 °F - 46.0 °F 97% 30.24 in 10.0 mi WNW 4.6 mph - N/A   Partly Cloudy
11:55 PM 45.9 °F 43.6 °F 43.5 °F 92% 30.23 in 10.0 mi NW 4.6 mph - N/A   Clear